Orbital Elements at Epoch 2459000.5 (2020-May-31.0) TDB
Reference: JPL 36 (heliocentric ecliptic J2000)
Element | Value | Uncertainty (1-sigma) | Units |
e | .1372706917228669 | 3.6611e-08 | |
a | 3.176468516749176 | 2.0354e-08 | au |
q | 2.740432486219107 | 1.1586e-07 | au |
i | 2.324029896387409 | 4.076e-06 | deg |
node | 118.8751427120183 | 0.00012964 | deg |
peri | 7.528030877845406 | 0.00013116 | deg |
M | 51.43697418296785 | 1.9089e-05 | deg |
tp | 2458705.047157964596 (2019-Aug-09.54715796) | 0.00010953 | TDB |
period | 2067.832037600012 5.66 | 1.9875e-05 5.441e-08 | d yr |
n | .1740953778904726 | 1.6733e-09 | deg/d |
Q | 3.612504547279245 | 2.3148e-08 | au |
|
| | Orbit Determination Parameters
Additional Information
|